Temp
30 28 27 27 28 29 30 30 30 29 29 29 28 27 27 26 26 30 31 32 33 30 29 30 29 30 30 30 28 26 25 25 24 24 23 23 23 22 22 23 24 24 23 23 23 22 22 21 21 21 21 21 20 20 20 20 20 20 19 18 18 18 18 18 18 18 18 18 18 18 18 18 19 19 19 19 19 20 20 20 21 21 21 20 20 20
29 26 27 29 29 30 29 29 30 29 29 29 28 26 26 26 27 30 31 31 32 29 27 30 29 29 30 31 30 27 26 26 25 24 24 24 23 23 22 23 24 24 23 23 22 22 21 21 21 21 21 21 21 21 21 20 20 20 20 19 19 19 19 19 18 18 18 18 18 18 18 18 19 19 19 20 20 20 20 20 20 20 20 20 20 20
27 26 28 30 29 29 29 29 29 28 29 28 28 26 24 26 28 29 31 31 31 29 27 29 28 28 30 30 31 30 28 27 25 25 24 24 23 23 22 23 23 23 23 22 22 21 21 21 21 21 21 21 21 21 21 20 20 20 20 20 19 19 19 19 19 18 18 18 18 18 18 18 19 19 19 19 19 19 19 20 20 20 20 20 20 20
24 26 29 29 29 29 29 29 28 28 28 28 27 25 24 27 27 25 28 31 31 29 28 29 28 28 30 30 31 31 29 28 26 25 25 24 23 23 23 22 22 23 22 22 22 22 21 21 21 21 21 21 21 21 20 20 20 20 20 20 20 20 20 20 19 19 19 19 19 19 19 19 19 19 19 19 19 19 19 19 19 20 20 20 20 20
26 28 29 28 28 28 28 28 29 27 26 27 28 26 25 27 27 26 28 30 30 29 29 28 24 25 28 28 30 31 29 27 25 24 24 24 23 24 23 22 21 21 21 21 21 22 21 21 21 21 21 21 21 21 20 20 21 20 20 20 20 20 20 20 19 19 19 19 19 19 19 19 19 19 18 18 19 19 19 19 19 20 20 20 20 20
28 29 29 28 28 28 28 28 29 27 25 26 28 28 28 28 28 28 28 27 25 24 27 27 22 22 27 28 30 31 28 25 24 24 22 23 23 22 22 22 21 21 20 18 19 22 22 22 21 21 21 21 21 20 20 20 21 20 20 20 20 20 20 20 20 19 19 19 19 19 19 19 19 19 18 19 19 19 19 19 19 19 19 19 19 19
28 28 28 28 27 28 28 27 28 28 25 23 27 29 29 29 28 28 27 25 22 22 26 27 22 21 24 26 29 30 28 24 22 23 23 22 21 21 21 21 21 21 20 18 19 22 23 22 21 21 21 21 20 20 20 20 20 20 20 20 20 20 20 20 20 19 19 19 20 20 19 19 20 19 19 19 19 19 19 19 19 19 19 19 19 19
28 28 28 28 27 27 27 26 28 29 25 23 28 30 29 29 27 27 26 24 23 24 26 27 25 22 21 24 28 29 29 25 21 21 22 21 20 20 21 19 20 21 21 21 22 23 22 22 22 21 21 21 20 20 20 20 20 20 20 20 20 20 20 20 20 20 19 20 20 20 20 20 20 20 20 20 20 19 19 19 19 19 19 19 19 19
29 28 27 28 27 26 26 27 29 29 26 26 29 29 28 28 27 27 26 24 25 24 22 24 25 22 20 24 28 28 28 26 23 22 21 20 20 21 20 18 18 19 19 22 23 22 22 22 22 22 21 21 20 20 20 20 20 20 20 20 20 20 20 20 20 20 20 20 19 20 20 20 20 20 20 20 20 19 19 19 18 18 19 19 19 19
28 28 27 27 26 26 27 28 29 28 27 28 29 27 27 27 27 27 25 24 24 22 20 22 23 22 21 23 25 26 25 24 23 23 22 21 22 23 21 20 19 18 18 22 24 23 22 22 22 22 21 20 20 20 20 20 20 20 20 20 20 20 20 20 20 20 20 19 19 19 19 20 20 20 20 20 20 20 19 19 19 18 18 19 19 19
28 28 28 27 27 27 27 28 28 27 27 28 27 26 26 26 27 26 25 24 22 21 21 22 23 22 21 22 24 25 25 24 24 23 23 22 23 23 23 22 22 21 21 23 24 23 22 22 22 21 21 21 20 20 20 20 20 20 20 20 20 20 20 20 20 19 20 19 19 19 19 19 20 20 20 20 20 20 20 19 19 18 18 18 18 18
28 28 28 28 28 27 27 27 27 28 28 27 26 25 24 23 24 24 23 23 21 20 21 23 24 22 20 22 25 26 26 26 25 24 23 23 23 22 22 23 23 23 23 23 23 23 22 21 22 21 21 21 20 20 20 20 20 20 20 20 20 20 20 20 20 19 19 19 19 19 19 19 19 19 19 19 20 20 20 20 19 19 19 18 18 18
27 28 28 28 28 27 26 25 26 27 28 27 26 24 21 21 21 21 21 21 20 20 22 23 23 22 21 23 25 26 26 26 26 25 23 24 23 22 22 22 23 23 23 22 23 23 21 21 22 21 21 21 20 20 20 20 20 20 20 20 20 20 20 20 19 19 19 19 19 19 19 19 19 19 19 19 19 20 20 20 20 19 19 18 18 18
24 27 28 28 27 27 26 24 23 25 26 26 24 22 21 20 20 20 20 20 20 21 21 22 22 21 22 23 24 26 26 26 27 26 25 24 23 23 22 22 23 24 23 23 23 22 20 20 20 21 21 21 20 20 20 20 20 20 20 20 21 21 20 20 19 19 19 19 19 19 19 19 19 19 19 19 19 19 19 19 19 19 19 19 18 18
22 23 26 27 27 27 26 26 25 25 25 26 26 25 22 21 20 20 20 20 20 21 21 21 21 20 21 22 24 26 26 26 26 26 26 25 23 23 24 24 24 23 23 23 22 21 19 19 18 19 20 21 20 20 20 20 20 20 21 21 21 20 20 20 19 19 19 19 19 19 19 19 19 19 18 18 19 19 19 19 19 19 19 19 18 19
21 22 26 28 27 26 26 27 27 26 24 25 27 25 22 22 22 20 21 21 20 20 21 21 21 22 23 23 24 26 26 26 26 26 26 25 25 25 24 24 23 23 23 23 21 19 18 18 18 18 20 20 20 20 20 20 20 20 21 21 21 20 20 20 20 19 19 19 19 19 19 19 19 18 18 18 18 18 18 18 18 18 19 19 18 18
21 22 26 27 26 27 26 27 28 25 24 24 24 23 23 26 24 21 20 21 20 20 20 21 21 23 24 23 23 24 25 25 26 26 25 26 26 25 24 24 23 23 22 22 20 19 18 18 17 18 18 19 19 20 20 20 20 20 21 21 20 20 20 20 20 19 19 19 19 19 19 19 19 19 18 18 18 18 18 18 18 18 18 18 18 18
23 22 25 27 26 27 28 27 27 27 25 24 23 23 25 26 24 22 20 20 20 20 20 21 21 21 22 21 22 23 24 25 25 25 26 26 25 25 24 24 24 23 22 21 21 19 18 17 17 17 17 17 18 18 19 20 20 20 21 20 20 20 20 20 20 19 19 19 19 19 19 19 19 18 18 18 18 18 18 18 18 18 18 18 18 18
25 21 24 27 26 27 28 26 24 26 27 25 24 26 25 22 22 21 20 20 20 20 20 21 21 21 20 20 21 22 24 24 25 26 25 25 26 25 24 24 24 24 21 20 20 18 18 17 17 16 16 16 16 17 18 20 21 21 21 20 20 20 20 20 20 19 19 19 19 18 18 18 18 18 18 18 18 18 18 18 18 18 18 18 18 18
26 22 22 26 27 26 26 24 22 23 26 26 25 26 25 23 22 21 21 21 20 20 20 20 20 20 20 21 22 22 23 24 24 25 25 24 25 25 25 24 24 23 21 20 19 18 17 17 17 16 16 16 16 15 18 20 21 21 20 20 20 20 20 20 19 19 19 19 19 18 18 18 18 18 18 18 18 17 17 17 18 17 17 18 17 18
26 23 21 24 26 25 23 24 23 23 25 24 23 23 23 23 23 22 22 21 21 20 20 20 20 20 21 23 23 23 24 24 24 25 25 25 25 25 25 24 24 24 22 21 20 18 17 17 17 17 16 16 16 16 18 20 21 21 20 20 20 20 20 20 19 19 19 19 18 18 18 18 18 18 18 18 17 17 17 17 17 17 17 17 17 17
24 23 21 22 23 22 23 25 26 26 26 25 23 22 23 22 22 21 20 21 21 20 20 20 20 20 22 24 24 24 24 24 25 25 25 25 25 25 25 25 25 24 22 21 21 18 17 16 16 16 16 15 17 18 19 20 20 21 20 20 20 20 20 20 19 19 19 19 19 18 18 18 17 18 18 18 17 17 17 17 17 17 17 17 17 17
25 24 22 21 22 23 25 27 26 26 26 25 25 24 24 23 22 20 19 20 21 20 21 20 19 20 23 25 25 25 25 25 25 25 25 25 25 25 25 25 25 24 21 21 20 19 18 18 17 16 16 16 18 19 20 20 20 21 20 20 20 20 20 20 20 20 20 19 19 18 18 18 18 18 17 17 17 17 17 17 17 17 17 17 17 17
24 23 21 21 22 24 26 27 26 26 26 24 24 25 24 24 23 22 22 21 21 20 20 20 19 20 23 25 25 25 25 25 25 25 25 25 25 25 24 24 25 24 22 20 20 19 19 19 18 18 18 18 19 20 20 20 20 20 20 20 20 20 20 20 20 20 20 20 19 19 18 18 18 18 17 17 17 17 17 17 17 17 17 17 17 17
23 22 21 20 21 22 23 24 24 24 24 23 23 24 25 24 24 24 23 22 21 20 21 20 20 21 22 24 25 25 25 25 25 25 25 25 24 23 23 22 22 23 23 20 19 20 19 18 18 19 19 19 20 20 20 20 20 20 20 20 20 20 20 20 20 20 20 20 19 19 18 18 18 18 18 17 17 17 17 17 17 17 16 16 16 16
22 22 21 20 20 20 21 21 21 22 23 23 23 24 24 24 24 23 22 21 20 20 21 20 20 21 23 24 24 24 24 24 24 25 24 25 24 22 22 20 19 21 22 21 19 19 19 18 18 18 18 19 20 20 20 20 20 20 21 20 20 20 20 20 20 20 20 19 19 19 19 18 18 18 17 17 17 17 17 16 16 16 16 16 16 16
23 22 22 21 20 21 21 21 22 23 22 22 22 23 23 24 24 23 21 20 20 21 21 21 21 22 22 23 23 22 23 23 23 24 24 24 24 22 21 21 19 19 22 22 20 20 20 19 19 19 18 19 20 20 20 20 20 20 21 21 20 20 20 20 20 20 19 19 19 19 18 18 18 17 17 17 17 16 16 16 16 16 16 15 15 15
22 21 22 21 21 22 22 22 23 23 22 22 22 22 23 23 23 22 21 21 22 21 20 21 23 22 22 24 24 23 23 23 23 24 24 24 23 22 21 21 20 20 21 21 20 20 20 19 19 19 19 19 20 21 21 21 20 20 21 21 21 20 20 20 19 19 19 19 18 18 18 18 17 17 17 16 16 16 16 16 16 15 15 15 15 15
22 21 22 22 21 22 23 23 23 23 23 23 22 22 22 22 22 21 21 22 22 21 20 22 22 22 22 24 24 24 24 24 24 24 24 23 23 22 21 21 21 21 22 22 20 20 20 20 19 19 19 20 20 20 21 21 21 21 21 21 21 20 20 19 19 19 19 18 18 18 18 18 17 17 16 16 16 16 16 15 15 15 15 15 15 14
22 21 22 22 21 22 23 23 23 23 23 23 23 22 22 22 22 22 22 22 22 21 22 22 22 22 23 24 24 25 24 24 25 24 24 24 23 22 22 21 21 21 22 23 22 21 20 20 19 19 19 20 20 21 21 21 21 22 22 22 21 20 20 19 19 19 19 18 18 18 18 18 17 17 16 17 17 16 16 16 16 15 15 15 15 14
22 21 22 22 20 21 22 22 23 23 22 22 22 23 23 22 22 22 22 22 22 21 22 22 21 22 23 24 24 24 25 25 24 24 24 24 24 24 23 23 22 22 23 23 23 22 21 21 20 20 20 20 20 21 21 22 21 22 22 21 20 20 20 19 19 19 18 18 18 18 18 18 17 17 17 17 17 16 16 16 16 16 15 15 15 14
21 20 21 21 19 19 21 21 22 23 22 21 21 22 23 23 22 22 22 22 22 21 21 21 21 22 24 25 24 24 24 24 24 24 24 24 24 24 24 24 24 24 24 24 24 23 22 21 20 20 20 20 20 21 21 21 21 21 22 21 20 20 20 19 19 19 18 18 18 18 18 17 17 17 17 17 17 17 16 16 16 16 15 15 15 14
21 20 20 20 18 19 20 21 22 22 20 20 21 22 23 23 23 22 22 23 23 22 21 21 21 23 24 24 24 24 24 24 24 24 24 24 24 24 24 24 24 24 25 25 25 24 23 22 21 21 21 21 21 21 21 21 21 21 22 21 20 20 20 19 19 19 18 18 18 18 18 17 17 17 17 17 17 17 16 16 16 15 15 15 15 14
21 20 19 18 17 18 20 21 21 19 18 19 22 23 23 23 23 22 22 23 23 23 22 22 23 24 24 24 24 24 24 24 24 24 24 25 25 24 24 24 24 25 25 24 24 25 24 23 23 22 21 21 21 21 21 21 21 21 21 21 20 19 19 19 19 19 18 18 18 18 18 17 17 17 17 17 17 16 16 16 15 15 15 14 14 14
20 19 19 18 17 17 19 19 18 17 18 21 23 24 24 23 23 23 23 23 24 24 23 23 23 24 24 24 24 24 24 25 25 25 25 25 25 24 24 24 24 24 24 24 24 24 24 24 23 23 22 22 22 21 21 21 21 21 21 21 20 19 19 19 19 19 18 18 18 18 17 17 17 17 17 17 16 16 16 15 15 15 14 14 14 14
20 19 19 18 18 17 18 18 17 18 21 22 23 23 24 23 23 22 22 22 24 24 23 23 23 24 24 24 24 24 25 25 25 25 25 25 25 25 24 24 24 24 24 24 24 23 23 23 23 23 22 22 21 21 20 20 20 20 20 20 20 20 19 19 19 19 19 18 18 18 17 17 17 17 17 16 16 16 16 15 14 14 14 14 14 13
20 19 18 17 17 17 17 18 18 19 20 21 22 23 23 22 22 22 21 21 23 24 23 23 23 24 24 24 25 25 25 24 24 24 25 25 25 25 24 24 24 24 24 24 23 23 23 23 23 23 22 21 21 20 20 20 20 20 20 20 20 20 19 19 19 19 18 18 18 17 17 17 17 16 16 16 16 15 15 14 14 14 14 14 14 13
21 20 18 17 17 18 17 17 18 18 18 20 22 23 23 23 23 23 21 21 23 24 24 24 24 24 24 24 24 25 24 23 23 23 24 24 25 25 24 24 24 24 24 24 23 23 23 22 22 22 21 21 20 20 20 20 20 20 20 20 20 20 19 19 19 18 18 18 18 18 17 17 16 16 16 15 15 15 14 13 13 13 14 14 14 13
21 20 18 17 17 17 17 16 17 17 18 21 22 23 23 23 23 23 20 20 22 24 24 24 24 24 24 24 24 24 23 22 22 23 23 23 24 24 24 24 24 24 24 23 23 23 23 22 22 22 21 20 20 20 20 20 20 20 20 20 20 19 19 19 19 19 18 18 18 18 17 17 16 16 15 15 15 15 14 13 13 13 13 13 13 13
20 18 16 16 16 16 16 16 17 18 20 22 23 23 24 23 23 21 18 20 23 25 24 24 24 24 24 24 24 23 22 22 22 22 22 23 23 23 23 23 23 24 24 24 23 23 23 22 21 21 21 20 20 20 20 20 20 20 20 20 19 19 19 19 19 18 18 18 18 18 17 16 15 15 15 15 15 14 13 13 13 12 12 12 13 13
18 16 15 15 16 15 15 16 17 19 20 22 23 23 24 23 21 19 18 21 24 24 24 25 24 24 24 24 23 23 23 23 22 22 22 23 23 23 23 23 23 23 24 24 23 23 23 22 21 21 21 20 20 20 20 20 20 20 20 19 19 19 19 19 18 18 18 18 18 17 17 16 15 15 14 14 14 14 13 12 12 12 12 12 12 13
16 15 15 15 15 15 16 16 16 18 21 23 23 23 24 21 19 19 21 23 24 23 24 24 24 24 24 23 23 23 23 23 23 23 23 23 22 23 23 23 23 23 23 23 23 23 22 22 21 21 21 21 20 20 20 20 20 20 19 19 19 19 19 18 18 18 18 18 18 17 16 15 14 14 14 14 14 14 13 12 12 12 12 11 12 12
15 15 14 15 15 15 15 15 15 17 21 23 22 22 22 21 20 21 23 23 23 24 24 23 23 24 24 23 23 23 23 23 23 23 23 22 22 22 22 23 23 23 23 23 23 22 22 22 21 21 21 21 20 20 20 20 19 19 19 19 19 19 18 18 18 18 18 18 18 16 15 14 14 13 13 13 13 13 13 13 12 11 11 11 11 12
15 15 15 15 15 15 15 17 17 18 20 23 22 21 22 22 22 23 23 22 23 23 23 23 23 23 23 23 23 23 23 23 23 23 23 22 22 22 22 22 23 22 22 23 23 22 22 21 21 21 21 20 20 20 20 20 19 19 19 18 18 18 18 18 18 18 18 18 17 15 14 14 13 13 13 13 12 12 13 12 12 12 11 11 11 11
16 16 15 15 15 15 15 17 18 17 19 21 21 21 21 22 23 24 23 22 22 22 22 22 21 22 22 23 23 23 23 23 23 23 23 23 22 22 22 22 22 22 22 22 22 22 21 21 21 21 21 21 20 20 20 20 19 19 18 18 18 18 18 18 17 17 17 17 17 15 15 14 13 13 13 13 12 12 12 12 12 12 11 11 11 11
17 16 15 14 15 15 15 16 17 17 18 20 20 20 21 21 23 24 23 23 23 22 22 22 22 22 21 21 22 23 23 23 23 23 23 23 22 22 22 22 22 22 22 22 22 22 22 21 21 21 21 21 20 20 20 19 19 19 18 18 18 18 18 18 17 17 17 17 16 16 16 15 14 13 13 13 12 12 12 12 12 12 12 11 11 11
17 15 14 14 14 14 15 16 18 18 18 19 19 19 18 19 20 22 22 22 23 23 23 23 23 23 21 20 21 22 22 23 23 23 23 23 22 22 22 22 22 22 22 22 22 22 21 21 21 21 21 21 20 20 20 19 19 19 19 19 18 18 18 18 18 17 17 17 16 16 16 15 15 14 14 13 13 13 13 12 12 12 12 11 11 11
15 14 14 14 14 14 15 17 18 18 19 19 18 17 17 16 17 19 20 21 21 23 23 23 23 23 22 22 22 22 22 22 22 23 23 23 23 23 22 22 22 22 22 22 22 21 21 21 21 21 21 21 20 20 20 19 19 19 19 19 18 18 18 18 18 17 17 16 16 16 16 15 15 15 15 14 14 14 14 13 13 13 12 12 12 12
14 13 14 14 14 14 15 17 18 18 19 19 18 18 17 17 16 18 19 19 20 21 22 22 23 23 23 23 23 23 22 22 22 22 23 23 23 23 22 22 22 22 22 21 21 21 21 21 21 21 21 21 20 20 20 19 19 19 19 18 18 18 18 18 17 17 16 16 16 16 16 16 15 15 15 15 15 14 14 14 14 14 13 12 12 12
13 13 14 14 13 14 16 17 18 17 17 19 18 18 18 18 18 18 18 18 18 19 20 21 21 20 21 22 22 22 22 22 22 22 23 23 23 22 23 23 22 22 22 22 21 21 21 21 21 20 20 21 20 20 19 19 19 19 19 18 18 18 18 17 17 16 16 16 16 16 16 16 16 15 15 15 15 14 14 14 14 14 13 12 12 12
15 14 14 14 14 15 17 18 18 18 18 19 19 18 19 19 19 19 18 17 17 18 19 20 20 18 19 21 21 20 22 22 23 22 22 23 23 22 22 23 22 22 22 22 21 21 21 20 20 20 20 20 20 19 19 19 19 19 19 18 18 18 18 17 17 16 16 16 16 16 16 16 16 16 15 15 15 14 14 13 13 13 13 12 12 12
Height
753 766 768 765 761 754 752 748 749 753 752 754 756 753 752 755 754 745 740 731 729 748 754 749 753 752 748 748 750 756 759 760 763 767 773 777 780 783 785 785 785 787 790 790 793 795 798 799 800 801 802 803 803 803 802 802 802 802 802 803 803 804 804 806 807 809 810 811 813 814 815 816 816 818 819 820 821 821 823 824 825 828 830 832 833 834
757 772 768 756 753 751 752 750 749 755 756 758 759 758 756 755 750 742 740 736 734 750 759 753 756 755 749 745 743 751 756 757 760 764 769 774 779 783 785 786 785 786 788 790 794 796 798 800 799 800 800 801 802 802 802 801 801 801 801 802 802 802 803 804 805 807 808 810 811 813 814 815 816 817 818 819 820 820 821 822 824 826 829 831 832 832
767 771 762 752 752 754 753 751 754 759 760 762 760 763 765 756 750 745 739 737 737 748 758 755 756 755 749 744 740 744 750 753 756 759 765 772 777 781 784 786 786 787 788 790 793 796 798 799 798 799 799 800 801 801 801 800 801 801 801 801 801 802 802 803 804 805 807 808 809 811 812 813 814 816 817 818 819 819 820 821 822 825 827 830 831 831
772 767 757 752 756 758 758 756 760 763 762 764 763 766 766 754 755 758 748 741 740 745 753 755 755 754 749 745 740 737 740 748 755 759 763 769 775 778 781 784 785 787 790 792 794 796 797 797 797 798 798 799 799 800 800 800 800 799 799 800 800 801 802 802 803 804 806 807 808 810 811 812 813 814 816 817 818 819 820 821 822 824 826 828 830 831
766 758 754 758 760 761 764 761 760 765 764 761 760 762 762 754 755 759 753 749 747 749 754 759 767 762 753 752 744 736 741 751 759 764 767 769 772 775 778 783 786 788 791 794 796 796 796 796 795 796 797 797 798 798 799 798 798 798 798 799 799 800 801 801 802 803 804 805 806 808 809 811 812 813 814 815 816 817 819 820 821 823 825 827 828 829
761 754 755 762 764 762 765 763 758 762 763 760 755 754 755 756 757 757 757 760 766 770 761 762 783 777 756 752 746 739 748 760 763 767 773 775 776 778 780 783 787 789 792 798 800 797 794 794 794 795 795 796 797 797 798 798 797 798 797 798 798 799 799 800 801 802 803 804 805 806 807 809 810 812 813 813 814 816 817 818 820 822 823 825 826 827
758 756 759 764 765 763 764 765 759 758 767 769 756 749 753 755 756 755 758 768 781 782 763 760 786 789 767 757 749 743 751 766 772 772 775 779 783 785 783 784 786 789 794 800 801 794 791 793 792 793 794 795 796 797 797 797 796 797 797 797 797 798 798 799 800 800 801 802 803 804 805 807 808 809 810 811 813 814 816 817 819 820 821 823 824 825
758 758 761 762 765 768 768 767 757 753 770 773 752 748 755 755 758 759 761 770 773 770 765 760 770 784 780 765 754 748 750 764 777 779 778 783 790 792 789 787 788 790 793 795 794 791 790 792 791 791 793 794 795 796 796 796 796 796 796 796 797 797 798 798 799 799 800 801 802 803 804 805 806 807 809 810 811 813 814 816 817 818 819 821 822 823
756 760 762 761 766 770 766 761 752 750 765 764 751 754 758 757 762 764 767 771 766 771 782 770 764 782 784 762 752 752 751 761 774 778 779 784 788 790 791 791 792 795 796 791 789 789 788 789 789 789 791 793 795 796 796 795 795 795 795 796 796 797 798 798 799 799 799 800 801 802 803 803 805 806 807 809 810 812 813 814 816 816 817 818 820 821
757 758 759 762 768 766 759 755 754 758 761 754 752 760 760 761 764 765 770 771 769 783 792 776 768 785 786 765 757 761 763 769 775 773 775 779 779 779 783 788 792 798 799 791 785 786 787 787 788 788 790 792 794 794 795 795 795 795 795 795 796 796 797 798 798 799 799 800 800 801 802 802 804 805 806 808 809 810 811 813 814 815 815 816 817 818
755 752 755 761 764 762 759 758 757 760 759 755 760 765 765 765 762 763 765 766 779 794 788 772 766 778 787 772 760 763 764 768 771 771 773 775 775 774 776 781 784 788 790 786 783 783 785 787 787 788 790 792 794 794 795 794 794 794 794 795 796 796 797 798 798 799 799 800 800 801 802 802 803 804 805 807 808 809 810 811 812 813 814 814 815 816
753 754 756 755 756 758 763 764 760 758 757 761 767 770 776 775 768 770 770 772 795 802 781 767 764 775 788 775 758 755 754 756 761 767 771 771 772 772 773 775 776 778 780 780 780 780 783 786 787 789 791 794 795 794 794 794 793 793 794 794 795 795 797 797 798 799 799 800 800 801 802 802 803 804 805 806 807 808 809 810 811 812 813 813 813 814
761 758 754 752 752 756 766 772 766 759 757 762 767 773 787 792 788 794 792 790 801 797 777 769 771 780 782 769 759 755 751 752 754 759 765 766 769 770 771 772 771 773 776 777 777 779 782 785 787 789 792 795 796 796 794 793 792 792 793 793 794 794 796 797 798 798 799 799 800 801 801 802 802 803 804 804 805 807 808 809 809 810 811 812 812 813
770 759 751 753 754 753 765 775 775 767 761 764 768 776 791 801 809 815 807 801 800 789 778 775 781 786 777 765 763 756 749 750 751 754 758 761 765 766 767 769 770 771 775 775 775 778 781 783 785 788 791 794 796 797 795 793 792 792 792 792 793 794 795 796 797 798 799 799 800 800 801 801 801 802 803 803 804 805 806 807 808 809 810 810 811 812
783 776 757 754 757 757 763 767 769 768 766 766 762 768 784 793 807 815 808 806 803 790 783 784 789 790 780 769 761 752 748 749 751 753 753 756 761 762 763 765 767 769 772 773 774 776 779 780 782 785 788 792 796 797 796 794 793 792 791 792 792 793 794 796 797 798 798 799 799 800 800 800 801 801 802 802 803 804 805 806 807 807 808 809 810 810
784 781 758 750 754 758 764 761 757 766 775 768 759 766 778 777 786 799 798 794 796 797 792 785 782 773 765 762 755 753 754 752 752 753 754 757 758 759 763 764 766 768 770 773 774 777 780 781 782 784 787 791 795 797 797 795 794 792 792 791 792 793 794 795 796 797 798 798 799 799 800 800 800 801 801 802 803 804 805 805 806 806 807 808 808 808
781 778 759 755 758 755 760 759 755 766 776 770 768 774 770 763 772 790 795 786 791 807 798 781 778 765 756 762 759 757 759 755 755 756 755 757 757 760 763 764 766 768 769 772 773 776 780 782 783 784 787 790 794 797 797 796 795 793 792 792 792 793 794 795 796 797 797 798 799 799 799 800 800 800 801 801 802 803 804 804 805 805 806 806 807 807
775 778 761 755 762 753 749 757 756 758 765 771 776 771 762 763 768 780 797 797 798 807 793 776 777 773 772 779 770 761 761 758 756 755 755 756 756 759 762 762 763 765 768 770 771 775 779 781 783 784 786 788 791 796 797 795 794 793 793 792 792 793 793 794 795 796 797 798 798 799 799 799 799 800 800 800 801 802 803 803 804 804 804 805 806 806
768 783 769 751 758 753 746 761 768 758 756 764 767 760 764 782 785 784 797 806 808 808 796 781 776 775 781 785 777 769 765 761 757 754 755 756 754 755 758 760 760 761 765 768 769 774 777 779 781 783 783 784 790 798 797 794 792 792 792 793 793 793 793 794 795 796 797 797 798 798 798 799 799 799 800 800 801 801 802 803 803 803 804 804 804 804
765 786 784 757 751 756 754 765 776 768 756 757 761 759 763 775 781 782 787 794 804 809 802 793 786 783 782 775 772 771 764 761 760 755 756 757 754 753 755 757 758 758 762 764 767 771 774 777 779 780 780 782 790 798 796 791 790 790 791 792 793 793 793 794 795 796 797 797 797 798 798 798 799 799 800 800 800 801 801 802 802 802 803 803 803 804
764 778 786 767 755 765 770 767 768 767 760 762 770 771 769 767 768 775 778 777 788 801 801 798 797 788 775 764 764 765 760 759 758 756 756 755 753 753 752 754 756 756 758 760 763 767 771 773 774 776 780 784 790 794 791 789 789 788 790 791 792 793 793 794 795 795 796 796 797 797 797 798 798 799 799 799 800 800 800 801 801 801 802 802 802 803
769 775 784 780 770 773 771 758 753 756 756 762 770 771 772 773 776 790 795 779 776 790 793 796 802 787 765 758 758 757 757 756 753 753 754 752 751 751 750 750 752 753 757 759 760 764 767 770 774 779 786 791 791 789 787 787 787 788 788 789 790 791 792 793 793 794 795 795 796 796 797 797 798 798 799 799 799 800 800 800 801 801 801 801 801 801
766 773 781 783 776 769 758 747 749 753 752 756 762 762 764 769 777 796 805 789 781 788 785 790 803 787 759 751 752 752 753 752 750 751 751 751 751 750 749 749 749 752 758 760 762 765 767 770 776 782 787 790 787 784 784 785 786 787 787 787 788 789 790 791 792 792 793 794 795 796 796 797 797 798 798 798 799 799 799 799 800 800 801 801 801 800
766 776 785 784 773 762 752 745 747 751 754 760 761 758 760 764 766 774 779 777 783 788 784 792 802 785 760 751 750 752 752 750 749 748 749 751 750 750 752 751 751 752 756 760 762 765 767 769 773 778 780 781 781 782 783 783 784 785 785 785 786 787 789 790 791 792 792 793 794 794 795 796 797 797 798 798 798 798 798 798 798 799 799 800 800 800
773 780 788 793 790 780 769 762 759 757 760 765 763 758 758 758 758 762 762 767 780 781 778 789 792 775 760 753 749 750 750 750 749 747 748 751 751 753 753 754 756 754 754 760 763 764 767 769 770 773 774 776 777 779 781 781 781 781 781 782 784 786 788 788 789 791 791 792 793 794 795 795 796 797 797 797 797 797 798 797 797 798 798 799 799 800
775 780 783 795 802 798 788 779 775 768 763 763 763 760 759 756 757 763 766 774 782 776 771 779 779 766 757 754 752 752 751 752 751 748 750 750 750 753 753 757 765 761 756 759 763 764 766 768 770 771 772 774 775 776 778 779 779 778 779 780 782 785 786 787 787 789 790 792 792 793 795 795 796 796 796 796 797 797 797 797 797 797 797 798 798 799
772 778 779 784 788 786 780 773 768 767 767 769 767 763 761 759 756 761 771 779 778 773 771 768 763 761 759 755 756 757 754 754 753 750 751 750 749 753 754 756 763 763 757 757 760 763 765 767 770 771 772 773 773 774 775 776 777 777 778 779 781 783 785 785 786 788 790 791 792 793 794 794 795 795 796 796 796 796 796 796 796 796 797 797 797 798
773 778 776 777 778 774 770 766 762 764 768 770 769 767 764 761 759 763 773 772 767 774 777 762 753 760 759 751 752 754 751 752 751 749 750 750 749 752 753 754 757 758 756 757 761 762 763 766 768 769 770 771 771 772 772 773 774 775 775 777 779 781 783 784 786 787 789 790 792 793 793 794 795 795 795 796 796 796 796 795 796 796 796 796 796 797
775 779 773 772 775 770 765 763 761 762 763 761 765 768 766 763 763 765 768 764 762 772 773 759 755 760 755 748 748 747 746 747 747 745 746 747 748 750 751 752 754 755 754 756 760 761 761 763 765 766 768 769 769 770 770 770 771 771 772 774 776 778 781 783 784 786 788 790 791 792 792 793 794 794 795 795 795 795 795 795 795 795 796 796 796 796
771 777 771 771 775 770 765 764 760 760 761 760 760 762 762 763 763 762 761 759 759 762 760 755 757 756 750 746 744 741 741 742 741 742 742 743 745 746 748 750 751 753 752 751 753 755 757 759 761 763 765 766 767 768 767 767 768 769 770 772 774 777 779 782 783 784 787 789 790 791 791 792 793 793 794 794 794 795 795 795 795 795 795 795 795 795
770 776 770 772 779 775 767 764 760 758 761 762 759 755 754 757 759 759 759 758 758 759 755 753 757 754 745 740 739 739 739 739 741 742 741 741 742 742 744 745 746 747 747 747 747 749 752 754 757 759 761 762 764 765 765 766 767 768 770 771 773 776 778 780 782 783 785 787 789 790 790 791 792 792 793 793 793 794 794 794 794 794 794 795 794 794
772 778 774 777 787 782 770 766 761 756 759 763 760 754 751 751 753 755 755 754 756 758 757 757 758 753 742 736 738 740 739 740 742 741 739 740 739 739 740 741 741 740 740 741 742 744 747 750 752 755 756 758 761 763 764 765 766 767 769 770 772 774 776 778 780 782 784 786 787 788 789 790 791 791 792 792 792 793 793 793 793 794 794 794 794 794
772 778 778 783 791 785 771 766 761 762 772 772 760 752 749 747 747 749 748 747 747 750 756 758 753 745 737 735 738 739 738 739 739 737 738 738 736 737 737 737 737 737 736 737 738 739 742 745 747 750 752 755 758 760 762 764 765 766 767 769 770 772 774 777 779 782 783 784 786 787 787 789 790 790 791 791 791 792 792 792 793 793 794 794 794 793
772 777 780 787 795 790 775 765 767 778 786 772 749 742 744 745 746 747 745 741 739 740 744 744 740 736 735 735 736 737 736 735 735 734 734 734 734 735 735 734 735 734 734 735 735 736 737 739 741 745 748 752 755 757 759 762 764 765 766 767 769 771 774 775 777 780 782 783 784 785 786 788 789 789 790 790 790 791 791 792 792 793 793 793 793 793
774 778 781 786 792 790 779 777 787 791 777 755 740 737 738 739 740 742 740 735 732 733 734 735 734 733 732 732 732 732 732 731 730 730 729 729 731 732 732 733 733 733 733 734 735 736 736 737 739 742 745 749 753 755 758 760 762 764 765 767 768 770 773 774 776 779 780 782 783 784 786 787 788 788 788 789 789 790 790 791 791 792 793 793 793 792
772 775 778 781 785 788 786 787 790 778 754 742 740 737 736 738 739 743 745 738 731 730 731 732 732 729 729 730 728 728 728 727 727 728 727 726 727 728 730 732 732 733 733 733 735 736 737 737 739 741 744 747 751 754 757 760 761 763 764 765 767 769 771 773 775 777 779 780 781 783 785 786 787 787 787 788 789 789 790 790 791 792 793 793 793 792
765 770 777 783 785 787 788 784 775 765 756 750 746 738 738 743 743 744 749 742 730 727 728 729 729 728 727 726 725 724 725 727 730 729 725 723 722 723 727 729 731 732 732 733 735 736 737 739 739 741 743 746 749 753 756 758 760 762 762 764 766 768 770 772 774 776 778 779 780 782 783 784 785 786 787 787 788 789 789 790 791 792 793 793 792 791
757 762 772 783 782 780 785 785 778 775 770 756 743 735 733 737 736 736 745 745 730 724 724 724 726 726 724 724 724 723 726 733 737 732 726 724 723 722 726 728 729 731 732 733 735 736 737 739 739 741 743 746 749 752 754 757 759 760 761 763 764 767 769 771 773 775 776 777 778 780 781 783 784 785 786 787 788 788 789 790 791 792 792 792 791 791
749 755 764 777 780 779 784 787 781 776 765 748 737 730 729 733 730 734 751 750 728 718 720 721 722 723 722 723 723 724 732 741 739 731 727 727 726 726 728 729 729 730 731 733 734 735 736 738 740 741 743 745 748 751 753 755 757 759 760 761 763 766 767 770 772 773 774 776 777 778 779 780 782 784 786 787 787 787 788 789 791 792 791 791 791 791
752 764 772 777 779 780 783 782 773 763 752 739 733 729 728 729 731 747 767 753 721 711 715 716 719 721 720 722 724 727 734 738 736 731 729 728 728 728 729 729 730 730 730 731 732 733 735 738 740 742 744 746 748 750 752 754 755 757 758 759 762 765 766 768 770 772 773 775 776 777 777 778 781 783 785 786 786 786 786 787 789 791 791 791 790 790
761 773 779 778 777 779 783 782 772 757 743 734 731 727 725 731 743 760 763 740 718 716 717 715 719 721 720 723 726 727 729 729 729 730 728 728 729 729 728 729 730 730 730 730 731 732 734 736 740 742 744 746 748 749 751 753 754 755 757 758 761 763 765 767 769 770 772 773 774 775 776 777 780 782 783 785 786 786 786 786 788 790 791 791 790 789
771 775 777 777 777 777 778 779 775 760 738 726 727 724 723 739 755 752 737 722 719 722 720 718 721 721 721 724 725 725 725 725 726 729 728 729 730 730 729 729 729 730 730 730 731 732 733 735 738 741 743 744 747 749 750 752 753 754 756 758 760 762 764 766 767 769 771 772 773 773 774 776 779 780 782 784 785 785 785 785 787 789 790 790 789 789
771 776 776 774 773 774 775 778 778 765 738 723 727 728 728 738 743 732 722 721 721 720 720 722 722 720 722 724 723 724 725 725 726 728 728 729 729 729 730 729 728 729 730 729 730 732 734 735 737 739 741 743 745 748 749 751 752 754 756 758 759 762 764 765 766 768 769 771 771 772 773 776 778 779 781 783 783 785 785 784 785 787 788 789 789 788
764 769 772 769 766 770 771 765 758 751 734 722 727 731 729 728 724 721 723 724 722 721 722 722 721 721 722 723 723 724 725 725 726 726 727 728 729 729 730 729 728 730 730 729 730 731 734 736 736 737 740 742 744 746 748 749 751 753 755 757 759 761 762 763 765 767 768 769 770 771 773 775 777 779 780 781 783 783 784 784 785 786 787 788 788 788
756 757 762 763 762 764 762 752 744 742 736 726 725 727 725 722 718 718 721 722 722 723 723 723 724 724 723 723 723 723 724 724 725 724 725 727 728 728 729 729 729 729 730 730 730 730 733 736 736 737 739 740 742 745 746 748 750 752 754 756 758 759 761 762 764 766 766 768 769 771 772 773 775 778 779 780 782 782 783 784 784 784 786 786 787 787
749 751 757 759 760 759 756 748 744 744 740 731 727 727 726 724 720 717 719 720 721 721 721 722 723 723 724 726 725 723 723 723 723 723 724 725 726 727 728 728 729 729 730 730 730 731 733 735 736 736 737 739 741 743 744 746 748 750 752 754 756 758 759 761 762 763 765 766 768 770 771 773 774 776 777 779 780 780 781 782 783 783 784 785 785 786
749 755 758 758 760 762 758 749 743 742 738 732 731 731 730 728 724 721 720 720 719 718 718 718 718 719 723 726 726 725 723 721 721 723 722 723 725 725 726 727 728 728 729 730 730 731 732 733 735 735 736 737 739 740 742 744 746 749 751 752 754 757 758 759 760 761 763 765 767 768 770 772 773 774 775 776 777 778 779 779 780 781 782 783 784 785
754 760 761 759 759 759 754 746 740 737 733 731 734 736 735 734 731 727 723 721 718 717 716 715 716 718 719 721 723 723 722 721 722 722 721 722 723 723 724 726 726 727 728 729 729 730 731 732 733 734 734 735 737 739 741 743 745 747 749 750 753 755 756 757 758 760 761 764 766 768 769 771 772 773 774 774 775 776 776 776 777 778 779 781 782 783
760 763 762 759 758 757 751 743 738 737 734 730 732 734 733 735 736 732 727 723 720 718 718 716 716 717 717 718 718 719 720 720 720 720 720 721 721 721 722 723 724 726 727 728 729 729 730 731 732 732 733 734 735 738 740 742 744 746 747 749 751 752 754 755 756 758 761 763 765 767 768 769 769 770 772 772 773 774 775 775 774 775 777 779 780 782
759 762 761 760 761 757 749 740 738 740 738 732 731 731 730 731 733 731 728 727 724 722 722 720 719 721 720 718 717 718 719 718 718 718 719 718 719 720 721 721 723 724 725 726 728 728 729 730 730 731 732 732 733 736 739 741 743 745 746 747 748 749 751 753 755 758 761 763 765 766 766 767 768 768 770 771 771 772 773 774 774 774 775 777 779 780
751 752 754 757 757 750 742 735 733 736 735 730 728 729 727 727 728 728 728 728 726 724 723 722 723 725 724 720 719 720 719 716 716 717 717 717 718 719 720 720 722 722 723 725 726 727 728 729 730 731 731 731 732 734 737 740 742 743 744 745 746 747 749 751 753 757 759 761 763 764 764 765 766 766 767 769 770 770 770 772 773 773 774 776 777 779
Wind_Speed
2 5 6 4 5 4 8 8 2 7 9 8 8 9 6 6 7 7 9 7 3 3 8 9 9 12 12 10 16 20 17 15 16 14 11 10 8 7 6 6 7 7 6 5 6 6 6 8 10 12 13 15 15 13 14 15 14 14 13 13 13 12 11 11 10 9 9 8 7 8 7 6 7 7 8 8 8 9 9 8 8 8 8 8 9 9
2 5 7 5 5 6 10 10 8 8 9 8 8 8 7 7 7 7 6 5 4 3 6 9 12 12 13 13 10 18 19 16 18 16 14 14 11 9 8 7 7 7 6 5 5 5 5 6 8 10 12 14 14 14 14 14 14 13 13 12 11 11 10 10 10 10 10 9 9 9 8 7 7 7 8 8 8 9 8 8 8 7 8 9 10 10
4 5 7 6 8 9 9 8 9 10 9 8 8 6 7 8 7 8 7 6 6 3 5 10 12 11 13 16 12 13 18 16 17 17 15 15 12 10 8 7 5 6 6 5 5 6 7 7 8 8 10 12 13 13 13 13 13 12 12 12 11 11 9 8 8 8 9 9 9 9 8 7 7 7 7 7 6 8 10 10 9 9 10 9 10 10
4 3 4 7 7 8 9 5 5 7 7 7 7 6 7 8 7 7 7 7 8 7 9 12 11 9 12 13 14 12 13 17 17 17 16 15 13 11 10 6 3 3 6 6 7 8 8 8 8 8 10 11 12 12 12 12 12 11 11 11 11 10 9 8 7 7 7 6 6 7 8 7 7 7 6 7 7 8 10 11 11 12 12 11 10 10
6 2 5 5 5 6 8 6 6 5 6 7 8 8 7 8 10 8 7 10 10 9 10 12 11 8 10 13 14 9 10 17 16 16 14 11 12 10 8 9 6 4 4 3 5 7 9 9 9 9 9 11 12 12 12 11 11 11 10 10 9 9 8 8 8 7 7 5 5 5 6 6 7 7 7 9 10 10 11 13 14 14 14 13 12 11
4 6 4 5 5 5 7 7 6 5 5 5 7 8 8 9 11 10 9 10 8 7 8 9 9 6 8 13 12 5 10 18 14 13 13 7 8 8 5 8 9 8 5 2 7 8 9 9 9 10 9 10 11 11 11 10 10 11 10 9 9 8 7 6 6 6 6 6 6 6 7 8 8 8 9 11 11 12 13 14 14 14 15 15 14 13
2 5 1 6 6 6 7 5 7 6 5 5 4 3 8 12 12 10 8 8 7 7 7 8 8 7 8 10 10 10 3 15 14 10 9 5 4 4 5 5 5 7 8 8 12 9 8 9 10 10 10 10 10 10 10 10 10 11 10 8 8 7 7 6 5 4 5 5 6 6 6 7 7 8 9 10 11 11 12 13 14 14 15 14 13 14
2 4 5 6 5 6 6 5 7 5 3 7 7 5 8 11 11 11 8 8 8 8 9 10 10 8 8 9 9 13 11 11 16 13 12 8 4 7 5 6 3 5 7 11 11 8 7 9 10 11 11 11 11 11 11 11 11 10 9 8 7 6 6 5 4 4 4 3 4 5 5 6 7 7 7 7 8 9 11 11 13 15 15 15 14 14
4 8 4 1 4 5 5 6 6 6 5 6 8 11 12 10 8 10 9 9 8 8 8 9 11 9 7 8 8 11 13 7 14 14 13 12 12 13 9 9 7 5 8 11 10 8 8 9 10 11 12 12 11 11 11 11 11 10 8 8 6 6 5 4 4 4 4 4 3 4 4 5 6 7 7 7 7 9 10 10 11 13 14 16 16 15
2 5 6 6 4 5 6 7 8 11 8 3 6 11 12 10 9 9 9 9 8 8 9 10 10 8 6 8 7 7 9 2 8 9 8 8 10 12 13 13 12 9 12 13 10 10 10 10 10 11 12 13 12 11 11 11 10 9 8 7 6 6 5 4 4 4 4 4 5 5 5 6 6 6 6 7 7 8 10 12 12 13 14 15 16 16
6 4 2 4 6 7 10 10 9 11 11 9 8 10 10 9 9 8 7 8 7 6 8 12 12 10 9 7 5 6 5 2 5 7 8 8 8 7 9 12 13 13 13 11 9 10 12 11 11 11 11 12 12 12 12 11 10 9 8 7 6 6 4 3 4 4 4 5 6 6 7 7 7 7 7 8 9 9 10 12 13 13 13 14 15 15
10 7 6 5 5 4 8 8 9 10 10 8 7 7 8 7 7 7 6 6 6 6 7 10 10 10 9 5 6 7 6 5 4 8 9 10 11 9 8 11 13 12 11 10 9 9 11 11 11 11 10 10 11 12 12 11 11 10 9 8 7 7 5 3 3 4 4 4 5 6 7 7 7 7 7 8 10 10 10 11 12 12 12 13 14 15
6 7 7 4 7 4 5 6 7 9 9 7 7 6 6 6 5 5 6 5 6 6 6 9 8 7 7 5 10 10 9 8 5 8 9 9 11 11 11 12 12 11 11 10 8 8 9 8 9 11 10 10 10 11 12 12 12 10 9 8 7 8 7 5 4 4 4 5 5 6 6 6 7 7 8 9 10 10 10 11 11 11 11 12 13 14
4 8 10 9 6 5 1 5 5 4 4 5 6 5 5 6 5 6 6 5 7 5 4 10 10 7 6 3 8 10 4 8 7 6 9 12 12 11 12 12 11 11 11 10 8 8 7 5 9 11 11 11 11 11 12 12 12 11 10 9 7 6 6 5 5 4 4 5 5 5 6 6 6 6 7 8 9 10 11 11 11 11 11 13 13 13
6 5 5 7 3 5 2 6 5 5 6 6 6 6 5 6 5 6 5 4 7 6 5 7 6 5 4 2 3 6 6 1 6 6 5 10 13 11 10 11 10 10 10 9 7 8 7 7 9 10 11 12 12 13 13 12 12 11 10 10 8 6 6 6 5 5 5 5 5 5 5 5 5 6 6 7 8 9 10 11 11 12 11 12 13 13
7 6 2 1 2 4 5 8 5 5 6 5 6 6 6 5 4 5 7 7 8 7 6 7 5 4 3 5 4 1 3 1 3 5 3 5 9 8 7 8 9 10 10 8 7 7 7 7 9 9 10 10 12 14 14 12 12 12 10 8 7 6 6 5 5 5 5 5 5 4 4 4 5 5 6 6 7 8 9 10 11 12 12 12 12 12
6 3 3 3 3 6 8 8 5 5 4 2 4 5 4 4 5 5 6 6 6 6 6 5 6 7 4 5 1 3 4 5 4 5 5 4 6 6 6 6 9 11 11 9 8 8 8 7 7 7 7 9 11 13 15 14 12 11 9 7 7 6 5 5 6 6 6 5 5 5 4 4 4 5 6 6 7 8 9 10 11 11 12 12 12 12
6 4 3 5 8 7 5 4 6 7 7 5 4 3 3 4 6 5 5 5 5 7 5 6 8 6 4 2 3 7 3 6 7 8 8 7 8 9 8 7 8 9 10 11 10 9 10 10 9 8 10 11 12 16 18 15 13 12 9 7 7 7 6 6 6 6 6 5 5 5 4 4 4 5 6 6 7 8 9 10 11 12 12 12 12 13
3 4 6 7 8 3 5 2 7 9 10 10 7 4 3 4 4 3 4 4 5 7 5 7 9 5 2 2 1 4 4 2 5 7 5 6 8 8 8 8 10 9 9 10 9 9 9 10 11 13 13 11 14 23 21 17 15 12 8 6 6 6 5 6 5 5 6 5 5 4 4 4 4 5 5 6 6 7 7 8 10 11 12 12 13 14
3 4 6 4 4 2 2 4 6 6 9 9 7 7 5 5 5 4 4 3 4 6 6 7 7 3 1 1 2 3 3 2 6 5 3 5 5 2 3 5 8 9 8 8 7 8 9 9 11 14 13 14 21 28 21 16 14 10 10 9 7 6 6 5 5 5 6 5 5 4 4 4 5 5 5 5 6 6 7 8 9 10 11 10 11 12
4 4 5 4 3 2 4 5 5 6 6 6 5 6 5 4 5 4 4 5 5 5 6 6 5 1 3 3 3 3 2 4 6 6 5 5 5 5 4 5 6 6 8 8 7 8 8 8 10 11 14 20 27 25 18 15 13 10 13 12 8 7 7 6 7 9 8 6 4 3 4 4 5 6 6 6 6 7 7 8 8 8 10 10 9 10
5 4 5 7 5 4 7 8 8 8 5 4 5 5 5 5 4 4 5 6 5 5 6 6 6 3 3 4 5 5 5 5 6 7 7 7 7 7 5 4 3 2 5 6 7 9 9 10 12 14 17 22 22 18 15 14 12 10 10 9 8 8 9 9 11 11 8 5 2 2 3 4 5 6 6 6 7 8 7 7 7 7 8 9 10 10
3 4 6 8 7 9 12 8 6 8 9 7 7 6 6 6 4 4 5 5 4 5 5 5 5 2 3 5 4 3 3 4 5 6 6 6 6 6 6 5 3 3 7 5 6 8 9 13 17 20 22 23 19 15 13 13 12 11 9 8 8 9 8 8 7 5 3 2 2 2 3 4 5 6 7 7 8 8 8 7 7 7 7 7 8 10
1 2 6 8 7 11 14 8 6 6 9 8 8 8 7 7 7 7 7 6 5 6 6 5 5 3 3 3 3 2 3 5 7 6 6 5 4 5 7 6 5 2 8 8 5 5 6 10 13 17 19 19 16 14 13 13 12 12 12 11 11 10 8 6 5 4 4 5 4 3 3 4 5 6 7 8 8 8 8 8 8 7 7 7 7 8
1 4 5 7 7 7 9 8 6 7 7 6 7 9 9 11 11 10 8 6 6 8 9 7 6 3 4 3 3 4 4 5 6 4 3 4 4 4 5 7 9 6 6 9 5 5 6 7 8 9 10 11 12 13 14 14 13 12 14 13 12 10 11 11 9 5 4 4 3 2 4 5 5 7 8 8 9 9 8 8 8 8 7 7 7 7
2 4 4 6 7 6 7 5 2 3 4 5 8 10 11 13 12 9 7 6 6 8 9 8 7 3 5 5 3 1 1 4 5 4 5 7 5 1 3 4 7 10 5 9 7 7 7 6 7 7 7 10 13 14 15 15 14 12 11 12 11 10 11 11 7 3 3 4 5 5 5 6 7 8 8 8 9 8 8 7 7 7 7 7 7 7
4 4 7 9 9 9 10 6 3 5 7 7 8 10 11 11 12 8 6 7 7 8 8 8 9 7 4 4 2 2 2 3 5 5 7 8 4 1 2 3 3 8 5 7 7 8 8 8 9 11 13 15 16 16 17 15 14 13 12 13 14 14 12 8 4 3 5 4 5 7 6 6 7 8 8 8 8 8 7 6 6 6 6 7 8 8
4 7 9 13 13 13 16 15 13 12 11 10 11 12 12 11 12 10 8 10 9 8 8 8 10 10 7 6 6 2 2 4 6 6 6 6 3 1 1 1 2 8 7 5 6 7 8 9 10 12 15 17 17 18 17 15 17 18 17 17 18 17 13 9 6 6 5 3 5 7 7 5 5 6 7 7 7 6 5 6 6 6 6 7 8 8
5 9 9 12 15 16 17 17 17 15 13 13 13 14 14 14 14 12 12 13 11 10 10 10 12 13 10 9 10 8 5 5 7 6 6 5 5 5 6 6 5 9 9 7 10 11 10 10 10 11 14 16 16 17 17 16 19 19 19 19 18 15 13 10 7 6 5 5 6 7 7 6 5 4 5 7 6 5 4 5 4 5 6 7 7 7
6 7 9 12 14 16 17 17 17 17 15 15 15 15 15 15 16 16 14 15 15 15 14 14 16 15 11 11 12 10 7 6 6 5 5 6 7 8 10 10 10 10 11 10 11 12 11 11 11 12 14 16 16 17 17 15 15 15 15 16 15 13 12 11 8 7 6 7 7 8 8 6 5 4 5 7 6 4 4 5 3 4 6 7 6 5
5 6 8 9 10 13 16 16 17 16 15 16 18 17 17 16 16 16 15 14 14 15 16 16 16 13 9 10 10 9 7 6 6 6 5 5 6 7 8 9 10 12 12 11 10 11 12 12 12 13 14 15 15 16 16 14 14 14 13 12 16 15 12 11 9 8 6 6 7 8 8 6 6 6 6 7 7 6 6 6 5 6 7 8 5 3
5 6 7 7 8 10 12 15 16 14 14 17 19 18 19 17 14 13 13 13 13 13 14 14 13 9 8 7 6 6 6 6 7 7 5 5 7 8 8 8 9 9 9 9 9 10 13 14 13 13 14 16 17 18 17 15 14 15 15 12 16 16 12 10 8 6 6 7 8 8 8 7 7 7 7 8 8 7 6 7 8 8 9 9 5 3
7 7 6 7 7 9 12 14 13 11 12 12 12 13 16 16 14 14 14 14 14 13 10 10 9 8 8 8 6 7 8 8 7 6 5 6 7 6 7 8 8 8 7 7 7 7 10 12 14 16 17 18 19 19 18 17 15 15 15 11 14 14 11 10 8 6 6 8 9 8 7 7 7 8 7 8 8 7 6 7 7 9 9 9 8 5
9 9 6 4 4 7 11 12 10 10 10 8 6 8 11 12 14 14 14 14 14 13 11 10 10 10 9 9 9 8 8 7 5 6 6 6 5 6 7 7 7 7 6 4 5 5 5 7 11 17 19 18 18 17 17 16 16 14 13 9 12 13 10 10 9 8 8 9 9 7 6 6 7 8 8 8 7 6 6 6 7 9 9 9 9 5
9 8 6 4 4 5 8 9 9 9 9 7 7 8 9 11 12 12 13 13 13 13 14 14 13 12 11 10 10 8 8 7 7 7 7 6 5 5 6 6 7 7 5 3 3 3 3 3 5 13 17 17 16 15 15 14 13 12 11 9 10 11 10 9 8 9 10 10 8 5 5 6 8 8 8 8 6 6 7 7 7 8 8 9 9 4
10 9 6 4 5 4 5 8 9 8 8 8 9 7 8 10 10 10 11 12 12 11 11 12 12 11 11 11 10 9 9 8 7 6 6 7 7 6 5 4 4 4 3 2 2 3 5 5 2 8 13 15 14 12 12 13 12 12 13 12 10 10 10 10 10 10 10 9 7 6 7 8 7 7 7 6 6 8 8 6 6 7 8 9 8 3
12 9 4 4 5 5 7 9 9 10 10 10 9 7 5 7 9 9 8 8 11 11 11 12 12 11 11 11 10 9 8 6 6 5 5 6 6 6 4 2 2 3 2 2 2 3 5 6 5 6 10 12 12 12 13 13 13 13 13 12 11 11 10 10 10 10 10 9 8 8 8 8 8 6 5 5 5 7 6 4 4 7 8 10 8 4
15 11 6 5 5 5 7 8 8 10 10 8 7 5 3 5 8 7 6 7 9 11 11 10 11 11 10 9 8 6 4 3 6 4 2 6 4 2 4 3 3 3 2 2 3 5 5 4 5 6 10 12 12 13 14 13 13 13 13 12 12 12 11 10 11 11 11 10 8 9 9 9 8 6 4 4 4 5 3 2 3 8 9 9 7 2
19 12 6 4 4 5 7 8 8 8 6 6 6 3 3 4 5 4 6 8 9 12 13 12 11 11 9 6 5 4 3 5 6 1 4 5 4 3 1 2 3 3 4 5 6 7 4 3 3 6 10 12 13 15 15 14 14 14 13 12 11 11 11 12 13 12 11 9 9 9 10 9 6 4 3 4 4 2 0 2 3 8 8 6 5 3
14 5 3 4 5 5 6 7 7 6 5 6 8 4 3 3 0 2 6 5 3 5 8 8 7 6 5 4 3 3 5 5 2 2 3 3 3 2 2 3 3 4 6 6 7 6 3 6 5 6 8 11 13 14 15 15 16 15 13 12 12 12 12 13 12 11 10 9 10 10 7 7 7 5 4 4 5 3 2 4 4 6 6 6 7 7
6 2 3 5 5 5 7 8 7 6 6 8 9 8 4 4 3 5 6 1 5 4 2 1 2 2 2 3 3 4 4 0 3 2 1 0 1 3 4 4 5 7 8 7 5 5 5 8 8 7 9 11 12 12 14 14 14 13 12 13 13 12 12 12 12 11 10 10 11 10 7 8 7 6 5 3 5 4 4 5 4 4 5 8 10 7
2 2 3 4 4 5 6 6 7 7 6 7 10 9 6 6 5 7 4 1 1 1 0 1 1 2 2 3 3 2 1 3 3 1 1 1 2 4 4 4 6 6 7 6 3 3 4 8 12 10 9 11 12 12 13 14 13 11 11 11 11 11 11 12 11 10 9 11 12 9 10 11 8 7 5 5 6 6 5 6 5 6 7 9 10 6
2 1 3 4 4 5 6 7 8 6 3 5 7 6 5 7 5 3 0 1 3 4 3 3 3 3 4 5 4 2 1 1 3 3 2 2 2 3 4 6 5 4 5 6 4 5 5 6 11 13 11 10 13 13 13 14 13 10 9 9 11 11 12 12 10 9 11 13 11 8 13 13 10 7 6 6 7 7 6 6 7 7 7 8 8 5
5 4 3 2 2 3 6 7 4 4 5 4 4 4 5 7 6 3 1 2 3 4 4 3 3 2 3 4 4 4 3 3 3 3 4 3 2 2 3 4 5 4 5 7 5 8 9 8 8 13 13 11 13 16 16 14 12 11 10 10 12 13 12 9 9 10 12 10 7 11 13 11 9 7 7 8 8 6 6 6 7 8 8 6 5 5
6 6 2 1 1 2 5 6 5 8 10 8 4 4 6 7 8 7 5 4 3 2 4 2 0 1 4 5 5 5 4 4 3 3 3 3 2 2 2 3 5 4 4 7 4 7 11 8 7 7 11 11 13 16 17 16 14 13 14 14 14 14 12 10 11 14 12 7 7 9 11 11 10 10 9 9 10 8 6 6 7 9 10 9 8 8
5 5 3 1 1 3 6 9 8 7 8 9 8 8 10 9 7 7 7 7 5 5 5 5 4 3 3 7 7 6 6 4 4 4 3 3 3 3 2 2 4 4 5 7 5 4 8 9 9 8 9 12 14 15 16 17 18 18 18 16 14 12 11 13 15 14 10 7 8 9 9 9 10 13 13 12 11 11 11 12 12 11 10 10 10 10
3 2 2 2 2 2 3 5 6 6 7 8 8 8 12 14 13 8 6 6 6 6 6 7 6 5 4 6 8 7 6 5 4 4 4 4 4 4 4 3 4 5 7 8 7 7 8 9 10 11 10 13 15 15 15 17 18 17 16 14 12 11 13 15 14 10 8 7 8 8 9 10 11 12 14 13 11 11 15 18 18 14 12 11 11 10
1 3 2 3 4 5 6 8 9 9 9 6 2 4 6 11 15 13 7 5 6 7 8 7 6 4 5 7 8 7 6 6 6 6 4 4 4 4 4 4 5 6 7 8 8 8 8 9 10 11 11 11 12 12 12 13 13 13 13 13 13 15 17 16 11 9 9 9 8 9 10 13 14 14 13 13 13 11 12 15 18 17 14 13 12 10
1 3 4 4 4 6 9 10 9 9 8 5 1 2 3 2 8 11 8 9 9 8 7 7 5 5 6 7 6 7 7 7 7 7 7 5 4 3 4 5 6 7 8 8 9 9 9 10 10 10 12 11 12 12 11 12 12 13 13 15 17 18 17 13 10 9 8 8 9 11 14 15 14 14 13 13 13 11 7 7 10 15 15 14 13 12
2 4 4 5 5 6 7 6 3 4 7 5 3 4 2 1 6 7 6 8 10 9 7 7 6 7 9 8 6 6 7 6 6 8 7 5 3 3 4 4 6 7 8 9 9 10 10 10 10 11 13 12 14 15 13 12 13 13 14 17 20 18 14 11 11 10 9 9 11 14 16 14 12 14 14 13 12 14 10 5 6 10 12 14 15 14
5 6 5 5 7 8 9 8 5 4 7 7 5 6 4 3 6 7 4 3 6 8 8 7 6 7 8 6 6 8 8 6 5 6 6 6 5 5 6 6 6 7 7 9 10 10 11 11 11 11 12 11 12 15 14 13 14 14 15 18 19 17 14 13 13 12 11 12 14 15 13 13 13 13 14 13 12 13 15 11 8 7 9 12 15 15
Wind_Direction
229 248 235 237 245 266 315 294 330 8 325 313 306 286 276 266 262 266 269 257 216 253 265 268 266 265 266 221 174 163 168 167 157 157 164 165 165 171 185 209 193 163 149 140 123 122 133 137 133 131 131 132 130 129 130 128 130 136 136 136 140 147 149 146 148 151 155 155 159 165 171 187 191 188 190 185 187 188 183 184 195 211 225 237 247 249
239 254 258 281 329 331 321 329 1 348 315 301 290 294 306 282 270 274 261 224 200 254 284 291 287 277 277 269 213 169 173 172 160 164 169 168 167 160 177 206 185 156 149 140 130 143 164 156 142 140 138 134 133 134 134 129 130 134 134 136 140 144 148 148 149 153 156 161 167 166 170 184 184 187 197 198 196 196 195 191 189 206 220 227 236 246
208 241 276 310 351 329 305 331 344 318 302 292 281 285 285 277 286 287 261 208 198 230 265 268 273 273 272 273 256 195 179 171 165 169 165 160 162 155 171 206 184 150 151 153 162 180 186 172 154 144 137 133 133 133 132 132 133 134 132 133 136 141 147 149 149 153 158 169 178 169 169 185 186 183 194 201 198 201 209 203 193 203 213 218 229 235
243 240 336 2 355 309 295 308 313 299 284 270 272 276 274 276 281 278 277 271 271 296 301 290 288 283 276 268 260 238 190 165 161 162 157 156 161 164 168 173 166 140 148 169 184 184 186 174 157 147 140 137 137 134 133 135 134 133 132 133 134 137 142 147 150 157 167 175 179 174 177 192 196 191 194 205 213 220 219 211 208 213 211 210 223 229
275 118 60 3 326 298 290 265 233 254 261 242 244 257 272 287 290 293 304 297 285 288 291 289 286 277 276 265 254 243 155 144 147 145 146 151 155 162 160 147 159 180 146 170 214 191 181 175 157 152 150 144 140 136 136 139 135 132 132 132 131 132 136 144 152 157 163 172 178 177 181 193 200 204 207 212 219 226 229 228 227 228 219 210 214 223
293 79 65 290 282 270 271 269 263 285 292 262 250 271 295 296 287 283 288 297 292 276 274 277 280 274 272 270 264 252 134 136 144 144 144 147 142 151 165 150 164 177 143 184 240 208 175 167 153 149 153 145 137 136 138 137 132 132 133 133 133 132 134 139 149 156 158 168 181 184 187 193 199 207 215 222 224 222 224 228 230 231 226 218 219 222
276 94 131 271 289 281 265 277 285 292 311 294 271 285 299 290 283 278 271 279 278 270 276 277 279 284 282 285 289 287 207 134 134 144 147 130 114 173 184 150 161 172 160 196 220 200 165 163 158 154 156 148 140 140 140 134 129 129 130 132 131 132 136 140 147 159 165 172 183 192 203 213 216 218 225 231 230 226 225 225 225 227 225 220 222 225
228 200 197 218 264 287 275 264 260 263 287 296 307 322 303 295 297 305 294 274 275 280 277 265 265 270 271 277 279 277 261 156 139 153 156 142 178 219 179 140 187 212 190 200 202 181 164 170 168 160 154 148 145 145 143 138 134 131 132 134 133 132 135 142 152 161 178 191 193 201 214 228 237 241 246 246 235 228 228 226 224 227 227 222 222 227
227 260 277 233 243 246 257 275 291 302 278 263 298 314 318 320 306 300 290 275 278 280 271 263 265 268 262 261 257 271 272 197 149 155 159 157 182 189 161 156 184 232 243 221 194 175 178 180 174 163 151 146 150 149 146 142 138 137 137 138 140 140 143 153 163 173 197 217 225 226 228 232 241 248 252 254 244 228 226 228 227 228 232 231 228 229
267 292 345 355 286 261 296 329 329 314 304 298 315 309 311 310 287 276 272 272 275 268 267 267 263 261 267 267 258 281 299 243 144 154 159 161 182 175 163 173 172 187 228 221 192 179 183 186 180 164 151 151 155 154 148 144 142 141 137 140 146 147 152 162 170 188 207 223 239 244 246 244 244 251 253 255 252 238 234 236 232 231 238 237 234 234
246 207 240 266 258 281 310 322 310 298 304 319 319 300 289 280 268 262 259 265 270 261 261 266 267 267 265 266 257 254 271 253 168 162 163 168 181 169 161 175 174 183 206 206 194 182 176 186 186 167 158 160 161 157 153 150 147 146 144 148 152 146 153 167 176 203 217 225 239 244 250 253 252 255 255 255 254 247 240 239 236 236 240 238 233 235
251 215 201 194 185 256 294 295 283 274 274 279 281 282 284 277 267 267 264 261 267 270 271 273 283 285 268 267 282 247 218 253 226 158 169 181 176 171 167 178 183 186 191 196 203 180 167 185 183 166 167 173 173 167 164 160 155 157 155 153 162 163 165 181 193 215 230 231 241 248 252 258 262 263 260 256 256 255 250 246 245 242 239 237 234 234
276 254 249 204 156 178 271 281 272 255 245 243 248 262 274 277 279 274 269 263 257 261 298 313 319 303 270 278 301 274 205 218 226 159 180 194 179 180 181 184 188 186 186 197 202 168 160 182 174 171 179 182 190 187 176 171 168 168 162 161 177 171 164 184 211 223 238 239 244 250 255 260 265 268 266 262 260 260 260 257 254 249 242 240 238 232
256 240 239 229 178 131 202 271 273 264 259 252 257 269 275 279 285 278 274 277 267 261 327 325 317 293 265 265 312 303 221 189 191 177 195 187 182 196 191 189 195 192 192 202 197 163 149 158 165 179 191 187 200 205 190 183 178 172 170 175 183 173 165 188 215 227 239 244 250 253 258 263 265 271 272 270 269 265 264 262 258 256 250 247 245 239
277 265 235 230 182 107 188 266 287 309 304 283 277 274 263 266 270 273 280 288 286 287 292 285 279 282 279 219 281 327 20 80 189 185 201 180 184 201 191 185 193 196 201 202 182 156 153 162 168 185 201 197 205 212 201 194 185 177 182 187 181 176 184 199 212 229 240 245 255 256 260 266 267 274 279 280 279 273 269 266 262 261 256 253 255 250
271 284 293 249 114 138 232 268 288 292 280 274 279 267 255 267 266 265 276 284 297 300 281 258 246 267 243 169 194 209 77 346 205 159 168 178 180 191 181 177 185 193 203 190 149 142 156 166 174 189 207 212 218 218 210 202 193 188 193 190 174 176 195 205 211 230 242 245 256 261 267 276 276 280 288 291 289 284 279 274 269 267 264 262 262 255
266 271 106 123 171 194 229 266 270 251 269 289 274 272 287 291 274 272 273 269 279 281 271 262 261 271 241 167 38 327 184 180 184 185 213 213 190 198 201 189 185 190 195 184 157 148 151 166 187 190 197 214 229 229 220 211 200 199 200 183 172 188 201 206 213 226 238 243 255 265 271 279 285 288 292 297 297 298 296 289 282 276 272 271 267 262
276 259 190 213 239 221 194 265 271 250 267 283 268 293 325 276 258 272 283 272 270 268 262 266 269 278 275 247 345 328 252 184 200 216 220 226 215 209 208 201 200 192 180 176 165 146 152 174 187 191 196 205 228 239 230 214 203 202 202 192 190 202 206 212 220 225 235 245 251 261 271 281 292 297 296 300 303 303 305 303 297 289 283 280 274 270
291 282 277 254 246 220 133 199 270 247 237 249 271 306 306 274 262 252 269 280 277 275 277 285 287 295 305 285 319 304 293 238 245 235 225 249 238 208 193 198 210 198 167 169 167 146 157 178 183 195 198 194 231 246 234 213 209 205 202 215 215 208 213 225 233 231 236 244 247 256 271 283 294 301 300 306 312 313 313 312 305 297 293 289 282 278
258 250 278 255 213 247 178 204 257 249 216 220 252 272 258 257 269 254 246 251 264 277 282 287 297 314 35 116 176 262 294 281 271 269 279 303 306 268 208 210 222 203 168 168 166 147 158 179 189 199 197 194 222 237 230 213 216 202 187 210 224 222 228 232 234 238 241 242 244 255 268 285 296 298 299 307 314 319 319 317 314 309 305 298 290 285
263 244 269 262 206 255 266 235 253 265 236 217 232 254 254 254 270 272 260 253 258 275 280 282 291 289 121 133 172 186 187 218 246 258 261 269 271 262 244 233 237 207 179 182 171 146 150 180 204 213 216 216 219 222 217 211 216 201 187 200 217 225 226 223 227 231 228 223 228 250 275 294 301 297 297 301 307 312 315 321 327 326 322 318 310 301
270 270 269 275 260 238 243 241 255 270 269 253 240 247 258 259 274 283 270 267 267 270 279 286 293 282 161 181 203 192 192 219 239 248 252 254 256 263 257 246 253 157 158 181 164 152 158 178 201 214 223 227 220 208 205 207 211 211 201 200 215 228 227 221 222 220 208 195 204 251 284 298 303 299 298 298 303 309 312 322 331 333 333 331 327 320
292 286 260 267 267 266 266 246 231 265 277 267 253 254 258 247 237 239 255 272 272 271 280 278 285 287 188 197 193 174 208 252 266 265 262 258 264 285 294 286 290 100 113 122 132 146 159 165 180 196 207 215 212 200 205 213 212 211 207 203 213 226 235 237 233 227 212 204 225 256 273 291 301 302 300 297 299 304 310 321 329 331 334 335 334 332
350 276 262 271 266 270 276 252 189 230 261 262 254 254 255 250 245 243 255 272 269 269 275 262 259 246 194 188 139 155 248 269 271 268 262 262 280 295 295 295 281 182 130 129 137 142 149 155 172 189 194 199 201 196 207 223 221 206 199 204 213 217 224 236 249 258 251 235 225 239 257 272 294 304 303 299 297 301 307 314 321 327 335 339 342 344
240 230 240 271 271 260 260 242 210 218 235 249 255 254 253 253 254 254 258 261 256 263 267 264 273 257 175 172 179 201 247 274 272 273 277 282 293 299 327 354 321 282 149 137 157 169 166 167 177 184 183 194 204 202 207 222 230 214 199 203 213 213 211 211 212 222 251 265 270 279 281 286 296 298 296 295 294 297 302 308 316 322 334 346 352 355
229 257 241 255 261 258 257 244 227 252 254 250 250 255 258 257 256 257 264 262 255 264 264 260 277 265 161 177 217 192 360 309 288 301 302 289 288 311 67 47 312 283 186 149 170 188 185 183 182 180 187 208 213 209 210 218 227 222 211 211 210 210 221 219 204 205 247 273 290 294 295 302 303 301 303 303 300 299 300 306 316 321 335 352 358 357
232 250 256 261 260 266 279 289 310 305 291 273 259 258 257 260 263 261 257 257 259 269 266 258 270 271 221 220 238 115 104 288 286 290 288 283 286 59 112 132 258 272 229 169 176 187 182 184 191 187 194 207 210 210 211 209 210 214 220 220 205 200 218 223 203 234 253 267 288 292 294 300 305 311 316 312 303 300 301 309 322 331 342 351 354 358
254 243 244 256 262 266 275 282 286 283 275 271 273 270 263 259 259 255 250 256 264 270 265 264 276 281 282 283 281 249 185 242 269 276 281 282 275 222 184 161 269 272 249 184 172 191 188 186 193 192 197 209 212 213 211 200 198 209 219 217 202 190 194 196 193 219 251 282 289 293 297 301 308 314 315 310 302 301 313 327 330 335 344 345 347 355
254 261 251 256 263 265 268 274 278 276 268 264 264 264 266 264 257 252 252 256 260 262 263 273 279 279 283 287 288 297 297 274 274 274 265 254 232 206 197 193 223 255 246 201 180 191 194 191 194 199 205 212 216 221 221 206 202 212 221 215 199 178 172 181 187 194 222 255 270 281 284 285 293 299 299 297 294 303 333 339 333 342 347 337 336 348
242 257 257 264 269 269 269 271 271 272 273 271 263 256 257 259 258 258 256 256 258 259 263 269 271 271 276 281 285 293 293 287 292 284 262 242 224 212 207 200 203 227 239 223 196 188 191 196 197 202 209 212 218 225 225 217 214 224 228 210 185 170 173 179 179 187 213 242 262 277 280 281 284 284 280 281 285 298 308 302 309 349 345 328 323 339
245 258 264 271 272 269 271 271 267 266 269 270 266 260 252 247 249 254 256 256 257 258 262 264 265 267 268 273 284 291 281 272 271 265 261 260 251 236 225 219 217 222 228 226 207 185 186 196 198 201 207 209 219 230 228 223 220 225 229 196 164 167 181 180 180 191 210 237 256 269 278 279 275 276 278 280 285 290 293 302 323 336 330 322 322 350
230 255 266 265 267 268 270 272 271 271 271 267 264 264 260 253 248 250 251 250 249 253 260 260 261 268 267 265 279 284 268 256 257 261 258 254 253 247 240 241 242 241 236 230 218 193 186 192 193 199 203 201 211 225 228 225 219 219 229 203 166 169 179 175 184 199 209 235 247 254 265 271 268 269 278 287 289 291 303 323 331 326 319 317 323 356
238 248 255 254 259 263 264 270 277 280 274 265 260 263 265 263 259 254 249 246 243 245 253 254 253 262 270 267 257 248 248 250 257 275 284 277 272 265 259 257 255 256 254 246 238 213 194 191 191 196 198 197 206 217 220 221 221 223 230 207 164 164 172 171 185 209 224 242 250 249 252 259 265 269 273 280 285 294 309 316 316 317 316 312 313 327
248 250 255 258 260 264 272 281 288 276 262 260 269 272 270 270 267 261 255 250 242 238 242 251 255 257 262 265 261 255 257 263 269 272 267 264 267 266 264 269 271 269 265 264 272 260 226 206 193 188 189 194 207 214 212 216 222 226 231 202 153 155 176 184 191 206 225 240 245 245 247 250 260 268 270 277 287 303 315 319 320 318 312 300 295 295
243 244 245 248 249 263 283 287 277 261 251 258 272 267 261 266 270 271 270 263 250 241 242 246 250 253 256 262 264 263 263 264 267 267 263 261 266 270 263 257 268 279 277 274 291 302 304 276 188 173 177 190 205 207 204 214 222 219 219 207 169 168 191 204 204 210 224 233 232 234 246 252 258 263 271 285 306 318 314 320 327 316 305 297 290 266
243 244 240 247 259 265 264 254 253 265 275 274 274 267 261 267 268 269 270 265 258 254 249 250 252 253 254 256 255 254 258 264 265 263 265 261 248 247 261 266 273 289 298 326 355 348 339 329 234 172 171 183 197 198 199 212 217 208 206 204 196 197 201 205 212 220 228 229 221 225 239 244 253 270 288 297 306 313 316 330 334 315 301 291 280 237
239 239 220 222 240 243 247 247 255 275 283 279 275 267 258 264 265 265 268 264 258 255 248 246 248 248 248 248 246 247 248 259 268 262 278 286 252 212 199 240 278 288 299 334 341 316 317 314 277 196 166 170 182 186 194 204 207 208 209 202 202 210 204 199 213 226 231 227 215 216 232 242 248 264 294 305 308 317 331 357 334 303 287 275 262 204
234 231 208 205 215 223 245 255 259 264 267 267 266 252 237 272 277 277 282 275 258 249 246 243 241 245 248 245 245 250 242 257 268 257 37 17 11 113 147 192 233 249 253 262 274 267 261 263 251 200 161 160 174 184 191 195 197 209 213 200 202 209 196 195 215 223 228 232 224 214 218 231 246 257 279 302 313 321 344 29 319 294 284 278 274 218
232 230 202 194 207 218 239 249 251 254 256 266 274 248 190 257 288 291 282 277 255 237 231 228 231 238 242 237 232 223 212 244 262 263 66 38 30 57 100 228 229 230 225 231 257 263 236 181 206 198 170 169 180 185 189 189 194 211 215 200 201 205 194 199 215 221 223 231 240 235 217 205 214 229 246 273 293 305 105 127 288 299 301 285 274 271
232 221 147 191 204 208 235 250 252 257 259 266 280 282 175 162 112 257 258 282 292 230 213 214 226 232 229 216 197 204 232 254 276 71 64 24 10 360 296 277 279 272 254 244 253 257 197 151 176 201 185 182 187 188 190 194 200 210 209 192 191 199 200 205 214 223 228 230 242 250 224 183 183 194 213 258 288 288 184 177 239 289 306 282 261 255
235 164 158 213 214 205 228 246 253 262 264 256 262 268 229 148 149 231 239 321 25 35 64 130 208 192 187 191 191 218 239 114 72 80 122 138 306 288 272 258 262 271 273 265 252 238 194 164 170 194 197 189 191 195 198 202 210 211 197 184 188 199 204 208 214 224 233 237 244 240 200 163 165 175 186 234 278 266 202 168 196 246 261 260 263 264
249 167 182 210 217 212 221 243 258 262 254 244 255 261 228 181 205 233 226 57 360 271 36 288 213 170 183 207 217 254 341 87 96 89 309 295 282 289 289 267 247 254 269 264 222 207 205 166 160 182 204 190 184 194 199 201 210 210 189 183 196 207 212 217 219 221 227 243 250 223 170 155 163 182 195 217 244 246 212 174 192 228 241 249 257 261
165 186 221 204 208 221 217 224 243 253 233 226 250 255 206 189 217 250 311 352 293 263 229 219 218 205 200 207 220 238 248 192 171 163 190 247 260 282 294 285 267 257 266 259 212 175 208 200 171 175 195 192 183 192 201 200 200 195 187 192 204 213 223 225 217 214 228 240 237 180 151 155 171 186 197 202 214 228 220 196 197 205 225 250 257 243
160 179 234 220 192 222 220 216 239 314 322 278 247 242 222 213 220 246 314 301 302 305 280 243 228 239 229 222 229 226 220 224 206 182 193 206 215 246 273 280 272 253 252 264 237 161 178 227 206 170 173 184 184 188 197 196 187 183 195 212 217 219 224 217 205 220 233 230 190 151 151 163 173 177 183 187 195 215 227 218 205 196 204 227 242 231
178 169 182 214 200 236 253 267 309 322 314 314 322 310 291 259 233 238 264 263 242 276 293 292 61 304 283 266 245 230 229 232 233 227 208 183 204 237 248 268 262 242 240 268 263 149 160 221 247 185 170 183 191 194 195 189 183 188 202 213 217 214 209 201 209 228 231 203 170 168 172 172 170 171 180 183 185 196 213 219 221 213 203 199 205 219
194 162 132 125 266 277 274 276 280 285 302 325 336 323 311 296 262 241 250 254 238 226 241 240 207 190 265 281 267 247 235 229 229 227 207 199 220 208 174 242 246 224 228 251 255 185 177 206 233 224 197 193 199 203 194 184 185 194 202 209 211 208 207 210 216 222 215 191 194 203 202 200 187 176 178 182 186 197 207 211 218 217 201 194 200 212
206 147 139 197 228 257 266 272 283 297 315 329 343 345 336 326 316 295 263 258 257 241 239 253 244 199 192 247 263 263 254 250 255 242 209 209 226 201 174 200 215 212 222 231 234 228 209 204 220 229 216 200 198 198 189 182 188 198 202 203 203 207 219 223 214 200 187 189 204 207 209 226 226 201 190 190 195 211 217 212 209 202 188 192 203 207
339 22 335 252 235 246 256 267 284 300 305 307 344 36 6 337 324 317 317 325 305 273 257 260 261 236 220 233 249 262 263 258 262 262 242 224 231 215 188 190 199 206 215 224 234 234 219 216 229 238 233 211 190 189 192 189 197 213 210 196 197 211 222 222 205 180 174 184 200 213 216 224 226 221 217 209 200 215 236 222 203 191 186 194 202 201
310 323 300 273 262 272 273 272 280 295 299 301 2 70 80 315 299 308 337 359 351 331 302 285 276 267 259 251 246 254 257 248 243 249 250 240 231 228 209 197 204 211 208 212 230 234 223 222 228 238 242 220 184 183 203 205 210 221 208 192 199 213 214 203 179 170 176 182 197 222 234 231 215 207 220 224 200 198 246 254 195 181 185 192 193 196
225 255 274 276 268 266 269 267 266 285 288 293 317 331 346 283 285 306 346 356 352 351 339 331 338 314 286 285 293 280 264 253 243 244 246 240 230 250 247 217 212 224 214 204 219 231 226 222 226 238 246 226 186 181 197 209 218 224 212 202 207 207 192 168 157 169 189 202 212 223 232 234 218 201 211 228 208 187 198 217 169 164 178 185 186 194
228 219 214 238 256 262 272 277 269 263 274 278 278 280 284 297 307 320 349 358 341 332 323 336 345 302 279 297 314 291 279 280 272 261 255 242 225 239 257 245 229 234 226 206 210 223 222 218 225 237 243 228 193 180 189 206 217 222 221 211 201 188 174 165 165 174 191 211 226 228 222 226 231 216 206 220 222 196 182 179 170 161 172 181 185 192